Wind_Speed
11 10 11 11 11 11 12 12 12 11 11 11 10 10 10 10 10 10 10 10 10 10 11 12 11 11 11 11 10 10 10 10 10 10 11 11 12 13 14 14 14 15 15
11 10 10 10 11 11 11 11 12 12 12 11 11 11 10 10 10 9 10 10 10 10 10 11 11 11 12 11 11 10 11 10 10 11 11 11 12 12 13 14 15 16 16
10 10 10 10 10 10 11 11 12 12 12 12 11 11 11 10 9 10 9 10 10 10 10 10 11 12 12 11 11 11 11 10 10 10 10 11 12 12 12 13 14 14 14
11 11 11 11 11 11 11 11 12 12 12 11 11 11 11 10 10 10 10 10 10 10 10 10 9 9 10 10 10 10 10 10 10 10 10 11 12 12 12 13 13 14 14
12 13 13 12 12 11 11 12 12 12 12 12 12 13 13 12 12 11 11 11 11 10 10 10 10 10 10 10 10 10 10 10 11 11 11 11 12 12 13 13 14 14 15
14 14 14 14 13 13 13 13 13 13 13 14 14 14 13 13 13 13 13 12 12 11 11 11 11 11 11 11 10 10 11 10 11 12 12 12 13 13 13 13 14 14 15
15 15 15 15 14 14 14 14 14 14 14 14 15 15 14 14 13 13 13 13 12 12 11 11 11 11 12 11 11 11 12 11 11 11 12 12 13 13 14 14 14 14 14
15 15 15 16 16 16 15 15 16 16 16 15 15 15 14 14 14 14 13 12 12 12 12 12 11 11 12 13 12 12 12 12 13 13 13 13 13 14 14 14 15 15 15
15 15 15 15 16 17 17 17 17 17 16 16 15 15 14 14 14 14 14 13 13 12 12 12 12 12 12 12 12 12 13 13 14 14 13 14 14 14 15 15 15 15 16
15 15 15 15 16 17 18 17 17 17 17 16 16 16 16 15 14 14 14 14 13 13 13 13 12 12 13 13 13 13 13 14 14 14 14 14 15 15 15 15 15 15 15
16 16 16 16 17 18 18 18 17 17 17 16 16 16 16 15 15 15 15 15 15 14 14 14 14 13 13 14 14 14 14 14 14 15 15 15 15 15 15 15 15 15 15
17 17 17 18 17 18 18 18 18 18 17 17 17 17 16 16 16 16 16 16 16 15 15 15 15 14 14 14 14 14 15 15 16 16 16 16 17 17 17 16 16 16 16
18 17 18 18 18 18 18 18 18 18 18 17 17 17 17 17 16 16 17 17 17 17 17 16 16 16 15 15 16 16 16 16 17 17 18 18 18 18 18 18 18 17 17
18 18 18 19 19 19 18 18 19 19 19 18 18 17 17 17 17 17 17 18 18 18 18 18 17 17 17 17 18 18 18 18 18 18 18 18 18 18 18 18 19 19 19
18 19 19 20 20 19 18 18 18 19 19 19 18 18 18 18 18 18 18 18 19 19 19 19 19 18 18 18 19 19 19 18 19 19 19 19 19 19 18 19 19 19 19
18 19 19 19 19 19 19 19 19 19 19 19 19 18 19 18 18 18 18 18 18 18 19 19 19 19 19 19 19 19 19 20 19 19 20 21 20 19 18 18 19 19 20
17 18 18 19 19 19 19 19 20 20 19 19 20 20 20 19 19 19 19 19 19 19 19 19 19 19 19 20 19 19 20 20 20 20 20 21 20 20 19 19 20 20 20
17 18 19 19 19 20 20 20 21 21 20 20 20 21 21 21 20 20 19 19 20 20 20 20 20 21 21 20 21 20 20 20 20 20 20 20 20 20 21 20 21 21 21
18 19 19 19 20 20 20 20 21 21 21 21 21 21 22 22 22 21 20 20 21 21 22 22 21 22 22 21 21 21 20 20 20 19 19 20 21 22 22 22 22 22 22
18 19 19 20 20 20 20 21 22 23 22 22 22 22 22 23 23 23 22 22 22 22 22 22 23 23 23 23 23 22 22 21 21 21 21 21 22 22 22 22 23 22 22
19 19 19 20 20 20 21 22 22 23 23 24 24 24 23 23 24 24 24 24 24 24 24 23 24 24 24 25 25 24 24 23 23 23 23 23 23 23 23 22 22 23 23
21 21 21 21 22 22 22 22 22 23 24 24 24 24 25 25 25 26 25 26 26 25 25 25 25 25 25 26 26 26 26 25 25 24 24 24 24 23 23 23 23 24 24
22 23 22 22 22 23 23 23 24 24 24 24 24 25 26 26 26 27 28 28 27 27 27 27 27 27 27 27 27 27 26 26 26 26 26 25 24 24 24 24 24 25 25
22 23 24 23 23 23 23 23 23 23 23 24 25 26 27 27 28 28 28 28 28 27 27 28 29 28 28 27 27 27 27 27 26 26 27 26 26 26 26 26 25 25 26
23 23 24 24 23 23 23 24 24 24 24 24 25 27 27 28 28 29 29 29 29 29 29 29 29 30 29 29 29 29 29 28 28 28 28 28 27 27 27 27 27 26 27
24 24 25 25 25 25 25 25 26 26 26 26 26 27 28 28 29 30 30 30 30 31 31 30 30 30 31 30 30 30 30 29 29 29 29 29 29 29 28 28 29 28 27
Wind_Direction
266 264 263 261 260 259 256 255 253 252 252 252 256 260 261 262 264 263 256 256 256 256 258 258 261 260 258 259 259 257 257 255 256 254 254 254 253 252 251 254 252 250 252
265 266 263 261 260 258 256 254 253 251 251 251 254 258 259 260 260 261 259 258 257 256 257 255 254 255 257 255 254 254 254 256 256 256 257 257 256 255 254 256 255 255 255
265 263 260 258 256 256 256 254 253 252 253 253 253 255 257 255 255 257 258 260 261 260 256 253 255 253 254 254 252 252 252 256 257 258 257 258 257 258 257 257 256 256 254
262 265 263 259 256 254 254 254 253 254 253 255 252 253 253 253 253 255 257 259 260 260 257 256 259 255 250 249 249 251 252 254 255 256 257 258 257 260 259 257 258 257 256
267 268 267 263 259 257 256 257 256 256 256 256 255 255 255 254 256 257 257 259 260 261 260 259 259 259 258 256 256 257 256 256 256 257 259 260 260 260 260 261 262 262 260
269 269 269 266 264 261 259 258 257 256 256 256 255 256 257 255 256 256 257 260 261 263 263 264 263 264 263 262 263 263 261 260 261 260 261 264 263 262 261 263 264 265 265
270 267 265 264 263 262 259 256 256 257 255 256 256 256 257 256 257 257 259 260 261 261 262 264 264 264 264 262 262 263 262 262 263 265 266 268 266 266 266 267 267 267 267
269 265 264 261 261 261 259 257 256 257 257 257 254 255 254 255 257 259 261 262 261 260 262 264 264 263 264 261 259 261 262 263 265 267 270 273 272 270 269 268 269 268 267
270 265 262 261 260 259 257 256 256 256 255 254 252 252 252 253 256 258 259 260 260 260 261 263 265 264 262 262 260 260 262 262 264 266 269 272 273 272 270 269 269 270 268
269 265 265 263 262 259 256 254 254 253 253 254 253 253 252 253 254 254 257 259 260 260 262 263 266 267 263 263 262 262 262 264 266 266 268 270 271 272 271 271 271 269 267
268 265 266 264 262 260 257 255 254 253 254 255 254 253 253 253 254 255 255 258 260 261 262 263 265 265 263 263 263 262 262 264 265 265 268 269 270 269 270 272 271 267 267
267 266 266 266 262 258 255 255 256 257 255 255 253 252 253 255 257 255 254 256 259 261 263 264 264 265 264 262 263 264 263 264 265 266 268 268 270 270 270 270 269 268 266
273 268 267 266 262 258 256 255 255 256 255 254 253 253 254 255 258 257 255 256 258 262 264 265 265 266 266 265 265 266 265 265 267 267 267 268 269 269 267 268 266 266 265
272 267 266 265 263 259 256 256 256 254 253 255 253 254 255 257 259 259 258 257 258 261 265 267 267 268 267 268 266 266 267 267 267 267 267 267 267 267 266 265 264 264 266
268 266 265 263 262 259 257 256 257 256 255 255 254 255 255 256 259 260 260 260 260 261 262 264 266 266 266 267 267 267 266 268 269 268 266 266 266 266 266 265 265 265 266
267 265 267 264 264 262 258 257 258 258 256 254 254 255 256 258 259 260 262 263 262 262 262 261 263 264 265 266 268 268 268 270 270 268 266 264 265 265 265 265 265 264 264
271 268 264 263 264 263 261 259 259 257 254 253 254 255 257 257 259 261 262 262 262 262 262 261 263 263 264 267 268 268 269 269 271 270 267 264 263 263 264 265 265 264 264
273 270 265 265 264 264 263 261 257 255 255 255 254 256 256 256 259 261 262 262 262 262 263 263 264 266 266 267 268 268 268 268 269 269 267 264 263 264 265 264 263 263 263
271 271 269 269 267 266 264 262 259 257 255 256 256 257 257 257 259 260 262 263 264 263 262 263 263 266 266 267 268 268 268 268 270 270 267 266 264 264 265 264 262 262 263
273 271 270 270 269 267 266 265 262 261 259 257 259 258 257 258 259 260 263 265 266 265 264 263 264 265 265 265 267 267 267 268 268 269 267 265 265 265 266 264 261 261 261
271 271 269 269 269 269 267 265 263 262 262 262 261 260 258 258 260 261 263 265 265 266 265 265 265 266 265 265 266 267 267 267 267 267 267 267 267 266 266 264 261 261 261
271 270 269 268 268 268 269 266 263 262 262 263 264 264 263 261 262 262 262 263 264 265 265 265 264 265 266 265 265 266 266 266 267 267 266 265 265 264 264 264 263 262 262
274 272 269 268 267 268 270 267 265 265 265 265 264 264 264 265 265 264 264 264 264 264 264 265 265 265 266 265 266 266 266 266 267 266 267 266 265 265 265 264 263 264 263
273 271 270 269 270 270 268 265 265 265 267 266 265 264 264 264 267 268 268 267 265 264 263 264 265 265 266 266 266 265 265 265 266 268 269 268 267 266 265 265 265 264 264
274 273 272 271 269 269 268 266 264 266 267 267 267 267 266 266 267 268 269 269 267 265 264 264 265 265 264 265 265 265 265 266 267 268 269 268 267 266 266 266 267 266 265
275 274 273 272 271 269 269 269 269 268 268 267 268 267 267 269 269 268 269 269 269 267 265 265 265 265 264 264 265 265 265 266 267 266 267 268 267 267 266 266 267 267 266
Height
5850 5849 5849 5849 5848 5848 5848 5849 5849 5849 5849 5849 5849 5849 5849 5849 5849 5848 5849 5849 5848 5848 5848 5848 5848 5848 5848 5848 5847 5847 5847 5847 5847 5847 5847 5847 5847 5848 5848 5848 5848 5848 5848
5847 5847 5847 5846 5846 5846 5846 5846 5846 5846 5847 5847 5847 5847 5847 5847 5847 5847 5846 5846 5846 5846 5846 5846 5845 5845 5845 5845 5845 5844 5845 5845 5845 5845 5845 5845 5845 5845 5845 5845 5845 5845 5845
5844 5844 5844 5844 5843 5843 5843 5843 5843 5844 5844 5844 5844 5844 5844 5844 5844 5844 5844 5844 5844 5844 5844 5843 5843 5843 5842 5842 5842 5842 5842 5842 5842 5842 5842 5842 5842 5842 5842 5842 5842 5842 5842
5842 5841 5841 5841 5841 5841 5841 5841 5841 5841 5841 5842 5842 5842 5842 5842 5842 5842 5842 5842 5841 5841 5841 5841 5841 5840 5840 5840 5840 5840 5840 5840 5840 5839 5839 5839 5839 5839 5839 5839 5839 5839 5839
5839 5838 5838 5838 5838 5838 5838 5838 5838 5838 5839 5839 5839 5839 5839 5839 5839 5839 5839 5839 5839 5839 5839 5838 5838 5838 5838 5838 5838 5837 5837 5837 5837 5837 5837 5836 5836 5836 5836 5836 5836 5835 5835
5835 5835 5835 5835 5834 5835 5835 5835 5835 5836 5836 5836 5836 5836 5836 5837 5837 5837 5836 5836 5836 5836 5836 5836 5835 5835 5835 5835 5835 5835 5835 5834 5834 5834 5834 5834 5834 5833 5833 5833 5832 5832 5832
5831 5830 5830 5831 5831 5831 5831 5832 5832 5832 5833 5833 5833 5833 5833 5833 5834 5834 5834 5834 5833 5833 5833 5833 5833 5833 5832 5832 5832 5832 5832 5832 5832 5831 5831 5831 5831 5830 5830 5830 5829 5829 5829
5826 5826 5826 5826 5827 5827 5828 5828 5829 5829 5829 5830 5830 5830 5830 5831 5830 5830 5831 5831 5830 5830 5830 5830 5830 5830 5830 5829 5829 5829 5829 5828 5828 5828 5828 5828 5828 5827 5827 5826 5826 5826 5826
5822 5821 5821 5822 5822 5823 5824 5824 5825 5825 5826 5826 5826 5827 5827 5827 5827 5827 5827 5827 5827 5827 5827 5827 5827 5826 5826 5826 5826 5826 5826 5825 5825 5825 5825 5825 5824 5824 5823 5823 5823 5822 5822
5817 5817 5817 5817 5818 5818 5819 5820 5820 5821 5822 5822 5822 5823 5823 5823 5824 5824 5824 5824 5824 5824 5824 5824 5824 5823 5823 5823 5823 5822 5822 5822 5822 5822 5822 5821 5821 5821 5820 5820 5819 5819 5818
5813 5813 5813 5813 5813 5814 5815 5815 5816 5817 5817 5818 5818 5819 5819 5820 5820 5820 5821 5821 5821 5821 5821 5820 5820 5820 5820 5819 5819 5819 5819 5819 5818 5818 5818 5818 5817 5817 5816 5816 5815 5815 5814
5809 5809 5809 5809 5809 5809 5810 5811 5811 5812 5813 5814 5814 5815 5816 5816 5816 5816 5817 5817 5817 5817 5817 5816 5816 5816 5816 5816 5815 5815 5815 5815 5814 5814 5814 5813 5813 5813 5812 5812 5811 5811 5810
5804 5804 5804 5804 5804 5805 5805 5806 5807 5808 5808 5809 5810 5810 5811 5812 5812 5812 5812 5813 5813 5813 5812 5812 5812 5812 5812 5811 5811 5811 5810 5810 5810 5809 5809 5809 5808 5808 5808 5807 5807 5806 5806
5799 5799 5799 5799 5799 5800 5800 5801 5802 5802 5803 5804 5805 5806 5806 5807 5807 5807 5808 5808 5808 5808 5808 5808 5808 5808 5807 5807 5806 5806 5806 5805 5804 5804 5803 5803 5803 5803 5803 5802 5802 5802 5801
5794 5794 5794 5794 5794 5795 5795 5796 5797 5797 5798 5799 5800 5801 5801 5802 5802 5803 5803 5803 5804 5804 5804 5804 5804 5803 5802 5802 5801 5801 5800 5800 5799 5798 5798 5798 5798 5798 5797 5797 5797 5797 5797
5789 5789 5789 5789 5789 5789 5790 5791 5792 5792 5793 5794 5795 5796 5796 5797 5797 5798 5798 5798 5798 5798 5798 5798 5798 5798 5797 5797 5796 5796 5795 5794 5793 5792 5791 5791 5792 5792 5792 5792 5792 5792 5792
5785 5784 5784 5784 5784 5785 5785 5786 5786 5787 5788 5789 5790 5790 5791 5792 5792 5792 5793 5793 5793 5793 5793 5793 5793 5792 5792 5792 5791 5790 5789 5788 5787 5785 5785 5785 5786 5786 5787 5787 5787 5787 5787
5780 5780 5779 5779 5780 5780 5780 5780 5781 5782 5783 5783 5784 5785 5785 5786 5786 5787 5787 5787 5787 5787 5787 5787 5787 5787 5786 5786 5785 5784 5783 5782 5781 5780 5779 5779 5780 5781 5781 5781 5781 5781 5782
5775 5775 5775 5774 5774 5774 5774 5774 5775 5776 5777 5778 5778 5779 5779 5780 5780 5781 5781 5781 5781 5781 5781 5781 5781 5781 5780 5780 5779 5779 5778 5777 5776 5775 5774 5774 5775 5775 5775 5775 5776 5776 5776
5770 5769 5769 5769 5769 5769 5769 5769 5769 5770 5770 5771 5772 5772 5773 5773 5774 5774 5775 5775 5775 5775 5774 5774 5774 5774 5774 5773 5773 5773 5772 5771 5770 5770 5769 5769 5769 5769 5769 5769 5769 5770 5770
5764 5764 5764 5763 5763 5763 5763 5763 5763 5763 5764 5764 5765 5765 5766 5766 5767 5767 5768 5768 5768 5768 5768 5768 5768 5767 5767 5767 5766 5766 5765 5765 5764 5764 5763 5763 5763 5763 5763 5763 5763 5763 5763
5758 5758 5758 5757 5757 5757 5756 5756 5756 5757 5757 5757 5757 5758 5758 5759 5759 5760 5760 5760 5760 5760 5760 5761 5761 5760 5760 5759 5759 5759 5758 5758 5758 5758 5757 5757 5756 5756 5756 5756 5756 5757 5757
5752 5751 5751 5751 5750 5750 5750 5750 5749 5750 5750 5750 5750 5751 5751 5752 5752 5752 5752 5752 5752 5752 5753 5753 5753 5752 5752 5752 5752 5751 5751 5751 5750 5750 5750 5750 5749 5749 5749 5749 5750 5750 5750
5745 5744 5744 5744 5743 5743 5743 5743 5743 5743 5743 5743 5743 5743 5743 5743 5743 5743 5743 5743 5744 5744 5744 5744 5744 5744 5744 5743 5743 5743 5743 5743 5743 5743 5742 5743 5743 5742 5742 5742 5742 5743 5743
5738 5737 5737 5736 5736 5736 5735 5735 5735 5735 5735 5735 5735 5735 5734 5735 5735 5735 5734 5734 5735 5735 5734 5734 5734 5735 5734 5734 5734 5735 5735 5735 5735 5735 5735 5735 5735 5735 5735 5735 5735 5735 5735
5731 5730 5730 5729 5728 5728 5728 5727 5727 5727 5727 5727 5726 5726 5726 5726 5726 5725 5725 5725 5725 5725 5725 5725 5725 5725 5725 5725 5725 5725 5726 5726 5726 5727 5727 5726 5726 5726 5727 5727 5727 5727 5727